Flag for Poland Weather past 2 weeks in Katowice, Poland

Now
45 °F

Partly sunny.


Feels Like: 43 °F
Forecast: 34 / 47 °F
Wind: 3 mph from Northeast

Location: Katowice Airport

Current Time: Feb 27, 2015 at 4:50:36 PM

Latest Report: Feb 27, 2015 at 4:30 PM


Visibility: N/A

Pressure: 29.92 "Hg

Humidity: 81%

Dew point: 39 °F

Location of KatowiceLocation

Historic Weather in Katowice — Graph

°F

Katowice temperature yesterday

Maximum temperature yesterday: 41 °F (at 12:30 PM)
Minimum temperature yesterday: 34 °F (at 4:00 AM)
Average temperature yesterday: 38 °F

Past Weeks' High & Low Weather Summary

 TemperatureHumidityPressure
High52 °F (Feb 15, 2:30 PM)100% (Feb 13, 3:00 AM)30.69 "Hg (Feb 13, 3:00 AM)
Low19 °F (Feb 14, 7:30 AM)29% (Feb 21, 1:00 PM)29.53 "Hg (Feb 23, 4:00 PM)
Average35 °F79%30.07 "Hg
* Reported Feb 12 4:00 PM — Feb 27 4:00 PM, Katowice, Weather by CustomWeather, © 2015

Note: Actual official high and low records may vary slightly from our data, if they occured in-between our weather recording intervals... More about our weather records

Advertising

Katowice weather history for previous 24 hours

 ConditionsComfort  
Time TempWeatherWind HumidityBarometerVisibility
4:00 PM
Fri, Feb 27
45 °FBroken clouds.2 mph76%29.92 "HgN/A
3:30 PM45 °FBroken clouds.2 mph81%29.92 "HgN/A
3:00 PM45 °FBroken clouds.5 mph76%29.92 "HgN/A
2:30 PM45 °FBroken clouds.5 mph76%29.92 "HgN/A
2:00 PM45 °FBroken clouds.3 mph76%29.92 "HgN/A
1:30 PM45 °FBroken clouds.5 mph81%29.92 "HgN/A
1:00 PM43 °FBroken clouds.3 mph81%29.92 "HgN/A
12:30 PM43 °FBroken clouds.3 mph81%29.92 "HgN/A
12:00 PM43 °FBroken clouds.7 mph81%29.92 "HgN/A
11:30 AM43 °FBroken clouds.7 mph81%29.95 "HgN/A
11:00 AM41 °FPartly sunny.7 mph87%29.95 "HgN/A
10:30 AM41 °FPartly sunny.5 mph87%29.95 "HgN/A
10:00 AM41 °FBroken clouds.6 mph87%29.95 "Hg5 mi
9:30 AM41 °FPartly sunny.9 mph87%29.95 "Hg4 mi
9:00 AM39 °FFog.6 mph93%29.95 "Hg2 mi
8:30 AM39 °FFog.6 mph93%29.95 "Hg2 mi
8:00 AM37 °FFog.7 mph100%29.95 "Hg1 mi
7:30 AM36 °FFog.5 mph100%29.95 "Hg1 mi
7:00 AM36 °FFog.5 mph100%29.95 "Hg1 mi
6:30 AM36 °FFog.3 mph100%29.95 "Hg1 mi
6:00 AM37 °FFog.3 mph100%29.95 "Hg1 mi
5:30 AM37 °FFog.6 mph100%29.95 "Hg2 mi
4:30 AM37 °FFog.3 mph100%29.95 "Hg1 mi
4:00 AM37 °FFog.5 mph100%29.95 "Hg1 mi
3:30 AM37 °FFog.7 mph100%29.95 "Hg1 mi
3:00 AM39 °FFog.7 mph93%29.98 "Hg2 mi
2:30 AM39 °FFog.7 mph100%29.98 "Hg1 mi
2:00 AM39 °FFog.7 mph100%29.98 "Hg1 mi
1:30 AM39 °FFog.6 mph93%30.01 "Hg1 mi
1:00 AM39 °FFog.6 mph100%30.01 "Hg1 mi
12:30 AM39 °FFog.6 mph100%30.01 "Hg1 mi
12:00 AM39 °FFog.5 mph100%30.04 "Hg1 mi
11:30 PM
Thu, Feb 26
39 °FFog.2 mph100%30.04 "Hg1 mi
11:00 PM39 °FFog.2 mph100%30.04 "Hg1 mi
10:30 PM39 °FFog.2 mph100%30.04 "Hg1 mi
10:00 PM39 °FFog.2 mph100%30.07 "Hg1 mi
9:30 PM39 °FFog.2 mph100%30.07 "Hg1 mi
9:00 PM39 °FFog.2 mph100%30.07 "Hg1 mi
8:30 PM39 °FLight rain. Fog.2 mph100%30.07 "Hg1 mi
8:00 PM39 °FDrizzle. Fog.3 mph100%30.07 "Hg1 mi
7:30 PM39 °FFog.3 mph100%30.07 "Hg1 mi
7:00 PM39 °FFog.1 mph100%30.09 "Hg1 mi
6:30 PM39 °FFog.1 mph100%30.09 "Hg1 mi
6:00 PM41 °FFog.No wind93%30.09 "Hg1 mi
5:30 PM41 °FFog.2 mph93%30.09 "Hg1 mi
5:00 PM41 °FFog.2 mph93%30.09 "Hg2 mi
4:30 PM41 °FFog.3 mph93%30.09 "Hg2 mi
4:00 PM41 °FFog.5 mph93%30.09 "Hg2 mi
Weather by CustomWeather, © 2015

See weather overviewHow to use our weather pages